星链-31734 (STARLINK-31734 )

导读 | 星芒AI

STARLINK-31734 是 SpaceX Starlink 项目中的一颗低轨通信卫星,属于第 13 批组网发射的卫星之一。该卫星于 2022 年 12 月发射,运行在约 550 公里的轨道高度,旨在为全球用户提供高速互联网服务。Starlink 卫星采用先进推进系统,具备自主变轨和避碰能力,支持星间激光通信,提升网络效率。该项目致力于构建覆盖全球的卫星互联网,尤其服务于偏远地区。

基本信息
目录编号:
59534
目录名称:
STARLINK-31734
国际标识:
2024-074A
轨道中心:
EARTH
卫星名称:
星链-31734
卫星全名:
星链-31734 (STARLINK-31734 )
卫星状态:
在轨 (已飞行611 天)
发射日期:
2024-04-18 UTC
国别 :
美国 (US)
星等 :
--
轨道信息
数据来源 国际轨道数据
星历时间: 2025-12-19T22:43:14+0800
11小时前
查看轨道信息
半长轴: 6861.195km
偏心率: 0.0000698
轨道倾角: 43.000°
近地点辐角 247.273°
升交点赤经 64.858°
平近点角 112.805°
近地点: 482.579km
远地点: 483.537km
周期: 94.267分钟
每日圈数: 15.275773
详细信息
固有亮度:
5
最大亮度:
1.5
卫星平台:
Starlink v2.0 mini
覆盖范围:
全球
运营商:
太空探索技术公司
运营商所在国:
美国
制造商(研发单位):
太空探索技术公司
制造商所在国:
美国
使用方式:
暂无
卫星简介
星链(Starlink)计划是由太空探索技术公司(SpaceX)提出的一个巨型低轨卫星互联网星座项目,计划在2019年至2024年间在太空搭建由约1.2万颗卫星组成的“星链”网络,其中1584颗将部署在地球上空550千米处的近地轨道,并从2020年开始工作。该卫星仍在工作。
2D轨道图
3D轨道图
轨道高度分析图
轨道倾角分析图
轨道综合分析图
查看轨道综合分析图